Time,TemperatureF,DewpointF,PressureIn,WindDirection,WindDirectionDegrees,WindSpeedMPH,WindSpeedGustMPH,Humidity,HourlyPrecipIn,Conditions,Clouds,dailyrainin,SoftwareType,DateUTC
2013-03-11 00:00:00,38.1,32.5,30.06,SW,225,0.0,0.0,80,0.00,,---,0.00,VWS V14.01,2013-03-11 04:00:00,
2013-03-11 00:05:00,37.9,32.0,30.06,WSW,248,0.0,0.0,79,0.00,,---,0.00,VWS V14.01,2013-03-11 04:05:00,
2013-03-11 00:10:00,37.8,31.8,30.06,WSW,248,0.0,0.0,79,0.00,,---,0.00,VWS V14.01,2013-03-11 04:10:00,
2013-03-11 00:15:00,37.6,31.7,30.06,WSW,248,0.0,0.0,79,0.00,,---,0.00,VWS V14.01,2013-03-11 04:15:00,
2013-03-11 00:20:00,37.6,31.4,30.06,SSW,202,0.0,0.0,78,0.00,,---,0.00,VWS V14.01,2013-03-11 04:20:00,
2013-03-11 00:25:00,37.6,32.0,30.06,SSW,202,0.0,0.0,80,0.00,,---,0.00,VWS V14.01,2013-03-11 04:25:00,
2013-03-11 00:30:00,37.6,32.0,30.06,SSW,202,0.0,0.0,80,0.00,,---,0.00,VWS V14.01,2013-03-11 04:30:00,
2013-03-11 00:35:00,37.4,32.1,30.06,SSW,202,1.3,1.3,81,0.00,,---,0.00,VWS V14.01,2013-03-11 04:35:00,
2013-03-11 00:40:00,37.2,32.2,30.06,SSW,202,0.0,0.0,82,0.00,,---,0.00,VWS V14.01,2013-03-11 04:40:00,
2013-03-11 00:45:00,37.2,31.9,30.06,SSW,202,0.0,0.0,81,0.00,,---,0.00,VWS V14.01,2013-03-11 04:45:00,
2013-03-11 00:50:00,37.0,31.5,30.06,SSW,202,0.0,0.0,80,0.00,,---,0.00,VWS V14.01,2013-03-11 04:50:00,
2013-03-11 00:55:00,36.9,31.3,30.06,SSW,202,0.0,0.0,80,0.00,,---,0.00,VWS V14.01,2013-03-11 04:55:00,
2013-03-11 01:00:00,36.7,31.4,30.06,SSW,202,0.0,0.0,81,0.00,,---,0.00,VWS V14.01,2013-03-11 05:00:00,
2013-03-11 01:05:00,36.7,31.1,30.06,SSW,202,0.0,0.0,80,0.00,,---,0.00,VWS V14.01,2013-03-11 05:05:00,
2013-03-11 01:10:00,36.5,30.9,30.06,SSW,202,0.9,0.9,80,0.00,,---,0.00,VWS V14.01,2013-03-11 05:10:00,
2013-03-11 01:15:00,36.7,31.7,30.06,SSW,202,0.0,0.0,82,0.00,,---,0.00,VWS V14.01,2013-03-11 05:15:00,
2013-03-11 01:20:00,36.5,31.5,30.06,SSW,202,0.0,0.0,82,0.00,,---,0.00,VWS V14.01,2013-03-11 05:20:00,
2013-03-11 01:25:00,36.3,31.1,30.06,SSW,202,0.0,0.0,81,0.00,,---,0.00,VWS V14.01,2013-03-11 05:25:00,
2013-03-11 01:30:00,36.3,31.1,30.06,SSW,202,0.0,0.0,81,0.00,,---,0.00,VWS V14.01,2013-03-11 05:30:00,
2013-03-11 01:35:00,36.5,32.1,30.06,South,180,0.0,0.0,84,0.00,,---,0.00,VWS V14.01,2013-03-11 05:35:00,
2013-03-11 01:40:00,36.7,32.9,30.06,SSE,158,1.3,1.3,86,0.00,,---,0.00,VWS V14.01,2013-03-11 05:40:00,
2013-03-11 01:45:00,36.7,32.9,30.06,SSE,158,1.1,1.1,86,0.00,,---,0.00,VWS V14.01,2013-03-11 05:45:00,
2013-03-11 01:50:00,36.9,32.8,30.03,SSE,158,0.0,0.0,85,0.00,,---,0.00,VWS V14.01,2013-03-11 05:50:00,
2013-03-11 01:55:00,36.5,32.4,30.03,SSE,158,0.0,0.0,85,0.00,,---,0.00,VWS V14.01,2013-03-11 05:55:00,
2013-03-11 02:00:00,36.7,32.6,30.03,SSE,158,0.0,0.0,85,0.00,,---,0.00,VWS V14.01,2013-03-11 06:00:00,
2013-03-11 02:05:00,36.9,32.8,30.03,South,180,0.0,0.0,85,0.00,,---,0.00,VWS V14.01,2013-03-11 06:05:00,
2013-03-11 02:10:00,37.0,33.0,30.03,South,180,0.0,0.0,85,0.00,,---,0.00,VWS V14.01,2013-03-11 06:10:00,
2013-03-11 02:15:00,37.0,33.0,30.03,South,180,0.0,0.0,85,0.00,,---,0.00,VWS V14.01,2013-03-11 06:15:00,
2013-03-11 02:20:00,37.0,33.0,30.03,South,180,0.0,0.0,85,0.00,,---,0.00,VWS V14.01,2013-03-11 06:20:00,
2013-03-11 02:25:00,37.0,33.0,30.03,South,180,0.0,0.0,85,0.00,,---,0.00,VWS V14.01,2013-03-11 06:25:00,
2013-03-11 02:30:00,37.0,33.0,30.03,NW,315,0.0,0.0,85,0.00,,---,0.00,VWS V14.01,2013-03-11 06:30:00,
2013-03-11 02:35:00,37.0,33.0,30.03,West,270,0.0,0.0,85,0.00,,---,0.00,VWS V14.01,2013-03-11 06:35:00,
2013-03-11 02:40:00,37.0,33.2,30.03,ENE,68,1.3,1.3,86,0.00,,---,0.00,VWS V14.01,2013-03-11 06:40:00,
2013-03-11 02:45:00,37.0,33.2,30.03,NE,45,1.6,1.6,86,0.00,,---,0.00,VWS V14.01,2013-03-11 06:45:00,
2013-03-11 02:50:00,37.0,33.2,30.06,ENE,68,0.9,0.9,86,0.00,,---,0.00,VWS V14.01,2013-03-11 06:50:00,
2013-03-11 02:55:00,36.7,32.6,30.06,ENE,68,0.0,0.0,85,0.00,,---,0.00,VWS V14.01,2013-03-11 06:55:00,
2013-03-11 03:00:00,36.7,32.3,30.06,ENE,68,0.0,0.0,84,0.00,,---,0.00,VWS V14.01,2013-03-11 07:00:00,
2013-03-11 03:05:00,36.7,32.3,30.03,ENE,68,0.0,0.0,84,0.00,,---,0.00,VWS V14.01,2013-03-11 07:05:00,
2013-03-11 03:10:00,36.7,32.3,30.03,SSE,158,1.6,1.6,84,0.00,,---,0.00,VWS V14.01,2013-03-11 07:10:00,
2013-03-11 03:15:00,36.7,32.6,30.03,SSE,158,0.0,0.0,85,0.00,,---,0.00,VWS V14.01,2013-03-11 07:15:00,
2013-03-11 03:20:00,36.9,32.8,30.03,SSE,158,0.0,0.0,85,0.00,,---,0.00,VWS V14.01,2013-03-11 07:20:00,
2013-03-11 03:25:00,36.9,32.8,30.03,SSE,158,0.0,0.0,85,0.00,,---,0.00,VWS V14.01,2013-03-11 07:25:00,
2013-03-11 03:30:00,36.3,32.2,30.03,SSE,158,0.0,0.0,85,0.00,,---,0.00,VWS V14.01,2013-03-11 07:30:00,
2013-03-11 03:35:00,36.3,32.2,30.03,WNW,292,0.0,0.0,85,0.00,,---,0.00,VWS V14.01,2013-03-11 07:35:00,
2013-03-11 03:40:00,36.3,32.2,30.03,WSW,248,0.0,0.0,85,0.00,,---,0.00,VWS V14.01,2013-03-11 07:40:00,
2013-03-11 03:45:00,36.1,31.8,30.03,WSW,248,0.0,0.0,84,0.00,,---,0.00,VWS V14.01,2013-03-11 07:45:00,
2013-03-11 03:50:00,36.1,31.8,30.03,SSE,158,0.0,0.0,84,0.00,,---,0.00,VWS V14.01,2013-03-11 07:50:00,
2013-03-11 03:55:00,36.1,31.8,30.03,South,180,0.0,1.1,84,0.00,,---,0.00,VWS V14.01,2013-03-11 07:55:00,
2013-03-11 04:00:00,36.1,32.1,30.03,South,180,0.0,0.0,85,0.00,,---,0.00,VWS V14.01,2013-03-11 08:00:00,
2013-03-11 04:05:00,36.1,32.1,30.03,NNW,338,1.3,1.3,85,0.00,,---,0.00,VWS V14.01,2013-03-11 08:05:00,
2013-03-11 04:10:00,36.0,31.9,30.03,NNW,338,0.0,0.0,85,0.00,,---,0.00,VWS V14.01,2013-03-11 08:10:00,
2013-03-11 04:15:00,35.8,31.7,30.03,NNW,338,0.0,0.0,85,0.00,,---,0.00,VWS V14.01,2013-03-11 08:15:00,
2013-03-11 04:20:00,35.6,31.5,30.03,ENE,68,1.1,2.0,85,0.00,,---,0.00,VWS V14.01,2013-03-11 08:20:00,
2013-03-11 04:25:00,35.6,31.2,30.03,ENE,68,1.3,1.3,84,0.00,,---,0.00,VWS V14.01,2013-03-11 08:25:00,
2013-03-11 04:30:00,35.6,31.5,30.03,ENE,68,1.1,1.6,85,0.00,,---,0.00,VWS V14.01,2013-03-11 08:30:00,
2013-03-11 04:35:00,35.6,31.5,30.03,NNE,22,0.0,0.0,85,0.00,,---,0.00,VWS V14.01,2013-03-11 08:35:00,
2013-03-11 04:40:00,35.6,31.5,30.03,NE,45,1.3,1.3,85,0.00,,---,0.00,VWS V14.01,2013-03-11 08:40:00,
2013-03-11 04:45:00,35.6,31.5,30.03,ENE,68,1.6,1.6,85,0.00,,---,0.00,VWS V14.01,2013-03-11 08:45:00,
2013-03-11 04:50:00,35.6,31.5,30.03,ENE,68,0.0,1.6,85,0.00,,---,0.00,VWS V14.01,2013-03-11 08:50:00,
2013-03-11 04:55:00,35.8,32.0,30.03,South,180,0.0,0.0,86,0.00,,---,0.00,VWS V14.01,2013-03-11 08:55:00,
2013-03-11 04:59:00,35.6,31.8,30.03,SE,135,0.0,0.0,86,0.00,,---,0.00,VWS V14.01,2013-03-11 08:59:00,
2013-03-11 05:04:00,35.6,31.8,30.00,SSW,202,0.0,0.0,86,0.00,,---,0.00,VWS V14.01,2013-03-11 09:04:00,
2013-03-11 05:09:00,35.6,31.8,30.00,SSW,202,0.0,0.0,86,0.00,,---,0.00,VWS V14.01,2013-03-11 09:09:00,
2013-03-11 05:14:00,35.4,31.4,30.00,SSW,202,0.0,0.0,85,0.00,,---,0.00,VWS V14.01,2013-03-11 09:14:00,
2013-03-11 05:20:00,35.4,31.4,30.00,South,180,0.0,0.0,85,0.00,,---,0.00,VWS V14.01,2013-03-11 09:20:00,
2013-03-11 05:24:00,35.6,31.5,30.00,SSE,158,1.3,1.3,85,0.00,,---,0.00,VWS V14.01,2013-03-11 09:24:00,
2013-03-11 05:29:00,35.6,31.5,30.00,SSE,158,0.0,0.0,85,0.00,,---,0.00,VWS V14.01,2013-03-11 09:29:00,
2013-03-11 05:34:00,35.6,31.5,30.00,SSE,158,0.0,0.0,85,0.00,,---,0.00,VWS V14.01,2013-03-11 09:34:00,
2013-03-11 05:39:00,35.4,31.7,30.00,WSW,248,0.0,0.0,86,0.00,,---,0.00,VWS V14.01,2013-03-11 09:39:00,
2013-03-11 05:44:00,35.4,31.4,30.00,SSW,202,0.0,0.0,85,0.00,,---,0.00,VWS V14.01,2013-03-11 09:44:00,
2013-03-11 05:49:00,35.2,31.2,30.00,SSW,202,0.0,0.0,85,0.00,,---,0.00,VWS V14.01,2013-03-11 09:49:00,
2013-03-11 05:54:00,35.1,31.0,30.00,South,180,0.0,0.0,85,0.00,,---,0.00,VWS V14.01,2013-03-11 09:54:00,
2013-03-11 05:59:00,35.2,31.2,30.00,South,180,0.0,0.0,85,0.00,,---,0.00,VWS V14.01,2013-03-11 09:59:00,
2013-03-11 06:04:00,35.2,31.2,30.00,South,180,0.0,0.0,85,0.00,,---,0.00,VWS V14.01,2013-03-11 10:04:00,
2013-03-11 06:09:00,35.2,31.2,30.00,WSW,248,0.0,0.0,85,0.00,,---,0.00,VWS V14.01,2013-03-11 10:09:00,
2013-03-11 06:14:00,35.1,31.0,30.00,WSW,248,0.0,0.0,85,0.00,,---,0.00,VWS V14.01,2013-03-11 10:14:00,
2013-03-11 06:19:00,35.2,31.2,30.00,WSW,248,0.0,0.0,85,0.00,,---,0.00,VWS V14.01,2013-03-11 10:19:00,
2013-03-11 06:24:00,35.2,31.5,30.00,SSW,202,1.3,1.3,86,0.00,,---,0.00,VWS V14.01,2013-03-11 10:24:00,
2013-03-11 06:29:00,35.6,31.8,30.00,South,180,1.1,1.1,86,0.00,,---,0.00,VWS V14.01,2013-03-11 10:29:00,
2013-03-11 06:34:00,35.6,31.8,30.00,South,180,0.0,0.0,86,0.00,,---,0.00,VWS V14.01,2013-03-11 10:34:00,
2013-03-11 06:39:00,35.6,32.1,30.00,SW,225,0.0,0.0,87,0.00,,---,0.00,VWS V14.01,2013-03-11 10:39:00,
2013-03-11 06:44:00,35.4,31.9,30.00,SW,225,0.0,0.0,87,0.00,,---,0.00,VWS V14.01,2013-03-11 10:44:00,
2013-03-11 06:49:00,35.4,31.9,30.00,SW,225,0.0,0.0,87,0.00,,---,0.00,VWS V14.01,2013-03-11 10:49:00,
2013-03-11 06:54:00,35.2,31.8,30.00,SW,225,0.0,0.0,87,0.00,,---,0.00,VWS V14.01,2013-03-11 10:54:00,
2013-03-11 06:59:00,35.2,31.8,30.00,SW,225,0.0,0.9,87,0.00,,---,0.00,VWS V14.01,2013-03-11 10:59:00,
2013-03-11 07:04:00,35.2,31.8,30.00,SW,225,0.9,0.9,87,0.00,,---,0.00,VWS V14.01,2013-03-11 11:04:00,
2013-03-11 07:09:00,35.4,31.9,30.00,SSE,158,0.9,0.9,87,0.00,,---,0.00,VWS V14.01,2013-03-11 11:09:00,
2013-03-11 07:14:00,35.4,31.9,30.00,SSE,158,0.0,0.0,87,0.00,,---,0.00,VWS V14.01,2013-03-11 11:14:00,
2013-03-11 07:19:00,35.6,32.1,30.00,SSW,202,0.0,0.0,87,0.00,,---,0.00,VWS V14.01,2013-03-11 11:19:00,
2013-03-11 07:24:00,35.4,31.9,30.00,SSW,202,0.0,0.0,87,0.00,,---,0.00,VWS V14.01,2013-03-11 11:24:00,
2013-03-11 07:29:00,35.6,31.8,30.00,SSW,202,0.0,0.0,86,0.00,,---,0.00,VWS V14.01,2013-03-11 11:29:00,
2013-03-11 07:34:00,35.6,31.8,30.00,SSW,202,1.1,1.1,86,0.00,,---,0.00,VWS V14.01,2013-03-11 11:34:00,
2013-03-11 07:39:00,36.0,32.2,30.00,SSW,202,0.0,0.0,86,0.00,,---,0.00,VWS V14.01,2013-03-11 11:39:00,
2013-03-11 07:44:00,36.5,33.0,30.00,SSW,202,0.0,0.0,87,0.00,,---,0.00,VWS V14.01,2013-03-11 11:44:00,
2013-03-11 07:49:00,36.7,33.2,30.00,SSW,202,0.0,0.0,87,0.00,,---,0.00,VWS V14.01,2013-03-11 11:49:00,
2013-03-11 07:54:00,37.0,33.5,30.00,SSW,202,0.9,0.9,87,0.00,,---,0.00,VWS V14.01,2013-03-11 11:54:00,
2013-03-11 07:59:00,37.4,33.9,30.00,SSW,202,0.0,0.0,87,0.00,,---,0.00,VWS V14.01,2013-03-11 11:59:00,
2013-03-11 08:04:00,37.6,34.1,30.00,SSW,202,0.0,0.0,87,0.00,,---,0.00,VWS V14.01,2013-03-11 12:04:00,
2013-03-11 08:09:00,38.1,34.3,30.00,SSW,202,0.0,0.0,86,0.00,,---,0.00,VWS V14.01,2013-03-11 12:09:00,
2013-03-11 08:14:00,38.3,34.5,30.00,SW,225,0.0,0.0,86,0.00,,---,0.00,VWS V14.01,2013-03-11 12:14:00,
2013-03-11 08:19:00,38.3,34.5,30.00,SW,225,0.0,0.0,86,0.00,,---,0.00,VWS V14.01,2013-03-11 12:19:00,
2013-03-11 08:24:00,39.0,35.2,30.00,SW,225,0.0,0.0,86,0.00,,---,0.00,VWS V14.01,2013-03-11 12:24:00,
2013-03-11 08:29:00,39.9,36.4,30.00,SW,225,0.0,0.0,87,0.00,,---,0.00,VWS V14.01,2013-03-11 12:29:00,
2013-03-11 08:34:00,40.3,36.7,30.00,WSW,248,0.0,0.0,87,0.00,,---,0.00,VWS V14.01,2013-03-11 12:34:00,
2013-03-11 08:39:00,41.0,37.4,30.00,SSW,202,1.3,1.6,87,0.00,,---,0.00,VWS V14.01,2013-03-11 12:39:00,
2013-03-11 08:44:00,42.4,39.1,30.00,SSW,202,1.6,1.6,88,0.00,,---,0.00,VWS V14.01,2013-03-11 12:44:00,
2013-03-11 08:49:00,43.0,39.7,30.00,SW,225,2.5,2.5,88,0.00,,---,0.00,VWS V14.01,2013-03-11 12:49:00,
2013-03-11 08:54:00,43.5,40.2,30.00,SSW,202,2.0,2.0,88,0.00,,---,0.00,VWS V14.01,2013-03-11 12:54:00,
2013-03-11 08:59:00,44.8,41.5,30.00,SSW,202,0.9,2.2,88,0.00,,---,0.00,VWS V14.01,2013-03-11 12:59:00,
2013-03-11 09:04:00,45.5,41.9,30.00,SSW,202,0.0,2.5,87,0.00,,---,0.00,VWS V14.01,2013-03-11 13:04:00,
2013-03-11 09:09:00,45.9,42.2,30.00,SW,225,0.0,3.1,87,0.00,,---,0.00,VWS V14.01,2013-03-11 13:09:00,
2013-03-11 09:14:00,46.2,42.3,30.00,WSW,248,0.0,0.0,86,0.00,,---,0.00,VWS V14.01,2013-03-11 13:14:00,
2013-03-11 09:19:00,46.6,42.6,30.00,WSW,248,0.0,0.0,86,0.00,,---,0.00,VWS V14.01,2013-03-11 13:19:00,
2013-03-11 09:24:00,46.6,42.3,30.00,SSW,202,0.0,0.0,85,0.00,,---,0.00,VWS V14.01,2013-03-11 13:24:00,
2013-03-11 09:29:00,46.8,42.2,30.00,SSW,202,1.6,1.6,84,0.00,,---,0.00,VWS V14.01,2013-03-11 13:29:00,
2013-03-11 09:34:00,47.3,42.7,30.00,NW,315,0.0,0.0,84,0.00,,---,0.00,VWS V14.01,2013-03-11 13:34:00,
2013-03-11 09:39:00,47.8,43.2,30.00,WSW,248,0.0,0.0,84,0.00,,---,0.00,VWS V14.01,2013-03-11 13:39:00,
2013-03-11 09:44:00,48.6,43.6,30.00,SSW,202,1.1,1.1,83,0.00,,---,0.00,VWS V14.01,2013-03-11 13:44:00,
2013-03-11 09:49:00,49.1,43.8,30.00,SSW,202,0.0,0.0,82,0.00,,---,0.00,VWS V14.01,2013-03-11 13:49:00,
2013-03-11 09:54:00,49.6,44.1,30.00,SW,225,0.0,0.0,81,0.00,,---,0.00,VWS V14.01,2013-03-11 13:54:00,
2013-03-11 09:59:00,49.8,43.9,30.00,WSW,248,0.0,0.0,80,0.00,,---,0.00,VWS V14.01,2013-03-11 13:59:00,
2013-03-11 10:04:00,50.4,44.1,30.00,SSW,202,0.0,0.0,79,0.00,,---,0.00,VWS V14.01,2013-03-11 14:04:00,
2013-03-11 10:09:00,51.4,44.8,30.00,SW,225,1.1,1.3,78,0.00,,---,0.00,VWS V14.01,2013-03-11 14:09:00,
2013-03-11 10:14:00,52.2,44.8,30.00,SSW,202,1.3,3.1,76,0.00,,---,0.00,VWS V14.01,2013-03-11 14:14:00,
2013-03-11 10:19:00,52.7,45.0,30.00,SW,225,2.5,2.5,75,0.00,,---,0.00,VWS V14.01,2013-03-11 14:19:00,
2013-03-11 10:24:00,53.1,45.0,30.00,SSW,202,3.4,3.4,74,0.00,,---,0.00,VWS V14.01,2013-03-11 14:24:00,
2013-03-11 10:29:00,53.1,43.9,30.00,SSE,158,0.0,0.9,71,0.00,,---,0.00,VWS V14.01,2013-03-11 14:29:00,
2013-03-11 10:34:00,53.8,45.0,30.00,SW,225,2.2,4.0,72,0.00,,---,0.00,VWS V14.01,2013-03-11 14:34:00,
2013-03-11 10:39:00,54.3,45.1,30.00,South,180,2.0,2.0,71,0.00,,---,0.00,VWS V14.01,2013-03-11 14:39:00,
2013-03-11 10:44:00,55.8,46.1,30.00,SSW,202,2.0,3.8,70,0.00,,---,0.00,VWS V14.01,2013-03-11 14:44:00,
2013-03-11 10:49:00,55.9,45.9,30.00,South,180,1.3,1.3,69,0.00,,---,0.00,VWS V14.01,2013-03-11 14:49:00,
2013-03-11 10:54:00,55.2,44.5,30.00,SSE,158,1.6,1.6,67,0.00,,---,0.00,VWS V14.01,2013-03-11 14:54:00,
2013-03-11 10:59:00,56.7,46.2,30.00,SSW,202,2.5,2.5,68,0.00,,---,0.00,VWS V14.01,2013-03-11 14:59:00,
2013-03-11 11:04:00,57.6,46.7,30.00,SSW,202,1.6,2.0,67,0.00,,---,0.00,VWS V14.01,2013-03-11 15:04:00,
2013-03-11 11:09:00,57.6,45.5,30.00,WSW,248,0.0,0.9,64,0.00,,---,0.00,VWS V14.01,2013-03-11 15:09:00,
2013-03-11 11:14:00,57.9,46.2,30.00,SSW,202,1.3,2.5,65,0.00,,---,0.00,VWS V14.01,2013-03-11 15:14:00,
2013-03-11 11:19:00,58.5,46.3,30.00,SSW,202,2.9,2.9,64,0.00,,---,0.00,VWS V14.01,2013-03-11 15:19:00,
2013-03-11 11:24:00,57.7,43.5,30.00,SSW,202,4.3,4.3,59,0.00,,---,0.00,VWS V14.01,2013-03-11 15:24:00,
2013-03-11 11:29:00,58.5,45.5,30.00,SW,225,6.0,6.0,62,0.00,,---,0.00,VWS V14.01,2013-03-11 15:29:00,
2013-03-11 11:34:00,59.2,46.2,29.97,SSE,158,5.8,5.8,62,0.00,,---,0.00,VWS V14.01,2013-03-11 15:34:00,
2013-03-11 11:39:00,59.0,45.6,29.97,SSW,202,2.7,4.3,61,0.00,,---,0.00,VWS V14.01,2013-03-11 15:39:00,
2013-03-11 11:44:00,59.0,45.6,29.97,SSE,158,6.0,6.0,61,0.00,,---,0.00,VWS V14.01,2013-03-11 15:44:00,
2013-03-11 11:49:00,59.5,45.7,30.00,SSW,202,2.5,2.5,60,0.00,,---,0.00,VWS V14.01,2013-03-11 15:49:00,
2013-03-11 11:54:00,60.4,46.9,30.00,SSW,202,3.6,3.6,61,0.00,,---,0.00,VWS V14.01,2013-03-11 15:54:00,
2013-03-11 11:59:00,61.3,46.9,30.00,WSW,248,3.1,4.7,59,0.00,,---,0.00,VWS V14.01,2013-03-11 15:59:00,
2013-03-11 12:04:00,60.8,45.5,29.97,South,180,5.4,5.4,57,0.00,,---,0.00,VWS V14.01,2013-03-11 16:04:00,
2013-03-11 12:09:00,60.8,45.5,29.97,SSE,158,2.9,2.9,57,0.00,,---,0.00,VWS V14.01,2013-03-11 16:09:00,
2013-03-11 12:14:00,61.2,45.8,29.97,SW,225,3.1,3.8,57,0.00,,---,0.00,VWS V14.01,2013-03-11 16:14:00,
2013-03-11 12:19:00,61.5,46.2,29.97,SSE,158,5.4,5.4,57,0.00,,---,0.00,VWS V14.01,2013-03-11 16:19:00,
2013-03-11 12:24:00,61.3,45.5,29.97,SW,225,4.3,4.3,56,0.00,,---,0.00,VWS V14.01,2013-03-11 16:24:00,
2013-03-11 12:29:00,61.2,45.4,29.97,SSW,202,2.9,2.9,56,0.00,,---,0.00,VWS V14.01,2013-03-11 16:29:00,
2013-03-11 12:34:00,61.7,45.9,29.97,South,180,2.7,2.7,56,0.00,,---,0.00,VWS V14.01,2013-03-11 16:34:00,
2013-03-11 12:39:00,62.1,45.7,29.97,SSW,202,2.7,2.7,55,0.00,,---,0.00,VWS V14.01,2013-03-11 16:39:00,
2013-03-11 12:44:00,62.1,45.2,29.97,SSW,202,1.6,6.3,54,0.00,,---,0.00,VWS V14.01,2013-03-11 16:44:00,
2013-03-11 12:49:00,61.7,44.9,29.97,SW,225,4.7,4.7,54,0.00,,---,0.00,VWS V14.01,2013-03-11 16:49:00,
2013-03-11 12:54:00,61.2,44.9,29.97,South,180,6.0,6.0,55,0.00,,---,0.00,VWS V14.01,2013-03-11 16:54:00,
2013-03-11 12:59:00,61.2,44.9,29.97,SSW,202,4.5,5.6,55,0.00,,---,0.00,VWS V14.01,2013-03-11 16:59:00,
2013-03-11 13:04:00,60.6,44.4,29.97,SSW,202,7.8,7.8,55,0.00,,---,0.00,VWS V14.01,2013-03-11 17:04:00,
2013-03-11 13:09:00,60.6,44.8,29.97,SSW,202,5.8,5.8,56,0.00,,---,0.00,VWS V14.01,2013-03-11 17:09:00,
2013-03-11 13:14:00,60.6,44.8,29.97,SSW,202,1.6,4.7,56,0.00,,---,0.00,VWS V14.01,2013-03-11 17:14:00,
2013-03-11 13:19:00,60.3,44.0,29.97,SSW,202,7.6,7.6,55,0.00,,---,0.00,VWS V14.01,2013-03-11 17:19:00,
2013-03-11 13:24:00,59.9,44.2,29.97,SSE,158,5.8,7.2,56,0.00,,---,0.00,VWS V14.01,2013-03-11 17:24:00,
2013-03-11 13:29:00,60.4,44.7,29.97,SW,225,3.6,3.6,56,0.00,,---,0.00,VWS V14.01,2013-03-11 17:29:00,
2013-03-11 13:34:00,61.2,44.9,29.94,SSW,202,3.6,3.6,55,0.00,,---,0.00,VWS V14.01,2013-03-11 17:34:00,
2013-03-11 13:39:00,60.8,44.5,29.94,SSE,158,4.9,6.3,55,0.00,,---,0.00,VWS V14.01,2013-03-11 17:39:00,
2013-03-11 13:44:00,60.3,44.5,29.94,SSW,202,4.9,4.9,56,0.00,,---,0.00,VWS V14.01,2013-03-11 17:44:00,
2013-03-11 13:49:00,60.3,44.0,29.94,SW,225,2.9,5.4,55,0.00,,---,0.00,VWS V14.01,2013-03-11 17:49:00,
2013-03-11 13:54:00,60.3,44.0,29.94,SSW,202,2.9,2.9,55,0.00,,---,0.00,VWS V14.01,2013-03-11 17:54:00,
2013-03-11 13:59:00,60.4,44.7,29.94,SSE,158,3.4,3.4,56,0.00,,---,0.00,VWS V14.01,2013-03-11 17:59:00,
2013-03-11 14:04:00,59.9,44.2,29.94,SSW,202,6.0,6.7,56,0.00,,---,0.00,VWS V14.01,2013-03-11 18:04:00,
2013-03-11 14:09:00,59.7,44.0,29.94,SSW,202,3.6,3.6,56,0.00,,---,0.00,VWS V14.01,2013-03-11 18:09:00,
2013-03-11 14:14:00,59.9,43.7,29.94,SSW,202,4.3,4.3,55,0.00,,---,0.00,VWS V14.01,2013-03-11 18:14:00,
2013-03-11 14:19:00,59.9,44.2,29.91,SSW,202,3.1,4.9,56,0.00,,---,0.00,VWS V14.01,2013-03-11 18:19:00,
2013-03-11 14:24:00,59.2,43.5,29.91,SSW,202,2.9,4.3,56,0.00,,---,0.00,VWS V14.01,2013-03-11 18:24:00,
2013-03-11 14:29:00,58.8,43.6,29.91,SW,225,6.0,6.0,57,0.00,,---,0.00,VWS V14.01,2013-03-11 18:29:00,
2013-03-11 14:34:00,58.8,43.6,29.91,SSW,202,3.4,3.8,57,0.00,,---,0.00,VWS V14.01,2013-03-11 18:34:00,
2013-03-11 14:39:00,59.0,43.8,29.91,SSW,202,2.0,2.0,57,0.00,,---,0.00,VWS V14.01,2013-03-11 18:39:00,
2013-03-11 14:44:00,59.0,43.8,29.91,SSW,202,4.0,4.0,57,0.00,,---,0.00,VWS V14.01,2013-03-11 18:44:00,
2013-03-11 14:49:00,58.8,44.1,29.91,SSW,202,2.0,2.0,58,0.00,,---,0.00,VWS V14.01,2013-03-11 18:49:00,
2013-03-11 14:54:00,58.5,43.8,29.91,SE,135,4.0,4.3,58,0.00,,---,0.00,VWS V14.01,2013-03-11 18:54:00,
2013-03-11 14:59:00,57.9,43.2,29.91,SSE,158,4.7,4.7,58,0.00,,---,0.00,VWS V14.01,2013-03-11 18:59:00,
2013-03-11 15:04:00,57.6,43.4,29.91,WSW,248,2.7,4.9,59,0.00,,---,0.00,VWS V14.01,2013-03-11 19:04:00,
2013-03-11 15:09:00,57.6,43.4,29.91,SSW,202,2.9,2.9,59,0.00,,---,0.00,VWS V14.01,2013-03-11 19:09:00,
2013-03-11 15:14:00,57.6,43.4,29.91,SSW,202,4.3,4.3,59,0.00,,---,0.00,VWS V14.01,2013-03-11 19:14:00,
2013-03-11 15:19:00,58.1,44.3,29.91,SSW,202,2.5,2.5,60,0.00,,---,0.00,VWS V14.01,2013-03-11 19:19:00,
2013-03-11 15:24:00,58.5,44.2,29.91,East,90,3.6,3.6,59,0.00,,---,0.00,VWS V14.01,2013-03-11 19:24:00,
2013-03-11 15:29:00,58.5,44.6,29.91,SSW,202,2.0,2.9,60,0.00,,---,0.00,VWS V14.01,2013-03-11 19:29:00,
2013-03-11 15:34:00,58.5,44.2,29.91,South,180,2.0,2.0,59,0.00,,---,0.00,VWS V14.01,2013-03-11 19:34:00,
2013-03-11 15:39:00,57.9,43.7,29.91,SW,225,2.5,2.5,59,0.00,,---,0.00,VWS V14.01,2013-03-11 19:39:00,
2013-03-11 15:44:00,57.7,44.0,29.91,SSW,202,5.8,5.8,60,0.00,,---,0.00,VWS V14.01,2013-03-11 19:44:00,
2013-03-11 15:49:00,57.2,43.5,29.91,SSE,158,3.4,3.4,60,0.00,,---,0.00,VWS V14.01,2013-03-11 19:49:00,
2013-03-11 15:54:00,57.0,43.7,29.91,South,180,4.3,4.3,61,0.00,,---,0.00,VWS V14.01,2013-03-11 19:54:00,
2013-03-11 15:59:00,57.2,43.9,29.91,SW,225,2.5,6.5,61,0.00,,---,0.00,VWS V14.01,2013-03-11 19:59:00,
2013-03-11 16:04:00,57.0,43.7,29.91,SSW,202,4.3,4.3,61,0.00,,---,0.00,VWS V14.01,2013-03-11 20:04:00,
2013-03-11 16:09:00,56.5,43.6,29.91,SSW,202,2.2,2.9,62,0.00,,---,0.00,VWS V14.01,2013-03-11 20:09:00,
2013-03-11 16:14:00,56.3,43.5,29.91,WSW,248,2.7,2.7,62,0.00,,---,0.00,VWS V14.01,2013-03-11 20:14:00,
2013-03-11 16:19:00,55.9,43.1,29.91,SSW,202,2.9,2.9,62,0.00,,---,0.00,VWS V14.01,2013-03-11 20:19:00,
2013-03-11 16:24:00,56.1,43.7,29.91,SSW,202,2.5,2.5,63,0.00,,---,0.00,VWS V14.01,2013-03-11 20:24:00,
2013-03-11 16:29:00,55.6,43.2,29.91,South,180,4.0,4.0,63,0.00,,---,0.00,VWS V14.01,2013-03-11 20:29:00,
2013-03-11 16:34:00,55.6,43.2,29.91,SSW,202,3.8,3.8,63,0.00,,---,0.00,VWS V14.01,2013-03-11 20:34:00,
2013-03-11 16:39:00,55.8,43.4,29.91,SSW,202,2.2,2.2,63,0.00,,---,0.00,VWS V14.01,2013-03-11 20:39:00,
2013-03-11 16:44:00,55.8,43.4,29.91,South,180,3.1,4.3,63,0.00,,---,0.00,VWS V14.01,2013-03-11 20:44:00,
2013-03-11 16:49:00,55.6,43.2,29.91,SSW,202,4.0,4.0,63,0.00,,---,0.00,VWS V14.01,2013-03-11 20:49:00,
2013-03-11 16:54:00,55.0,43.1,29.91,NNW,338,0.0,2.2,64,0.00,,---,0.00,VWS V14.01,2013-03-11 20:54:00,
2013-03-11 16:59:00,54.7,43.2,29.91,SSW,202,2.0,2.9,65,0.00,,---,0.00,VWS V14.01,2013-03-11 20:59:00,
2013-03-11 17:04:00,54.5,43.0,29.91,SSW,202,3.6,3.6,65,0.00,,---,0.00,VWS V14.01,2013-03-11 21:04:00,
2013-03-11 17:09:00,54.0,42.5,29.91,SSW,202,3.1,3.8,65,0.00,,---,0.00,VWS V14.01,2013-03-11 21:09:00,
2013-03-11 17:14:00,54.0,42.9,29.91,SSW,202,3.4,3.4,66,0.00,,---,0.00,VWS V14.01,2013-03-11 21:14:00,
2013-03-11 17:19:00,54.0,42.9,29.91,WSW,248,3.1,3.1,66,0.00,,---,0.00,VWS V14.01,2013-03-11 21:19:00,
2013-03-11 17:24:00,53.2,42.6,29.91,SSW,202,4.0,4.0,67,0.00,,---,0.00,VWS V14.01,2013-03-11 21:24:00,
2013-03-11 17:29:00,53.1,42.4,29.91,SSW,202,4.0,4.0,67,0.00,,---,0.00,VWS V14.01,2013-03-11 21:29:00,
2013-03-11 17:34:00,52.7,42.5,29.88,SSE,158,3.1,3.1,68,0.00,,---,0.00,VWS V14.01,2013-03-11 21:34:00,
2013-03-11 17:39:00,52.5,42.3,29.88,SSW,202,4.3,4.3,68,0.00,,---,0.00,VWS V14.01,2013-03-11 21:39:00,
2013-03-11 17:44:00,52.3,42.1,29.88,SSE,158,0.0,2.0,68,0.00,,---,0.00,VWS V14.01,2013-03-11 21:44:00,
2013-03-11 17:49:00,51.8,42.0,29.88,SSW,202,2.7,2.7,69,0.00,,---,0.00,VWS V14.01,2013-03-11 21:49:00,
2013-03-11 17:54:00,51.6,42.2,29.88,SSW,202,4.3,4.3,70,0.00,,---,0.00,VWS V14.01,2013-03-11 21:54:00,
2013-03-11 17:59:00,51.4,42.0,29.88,SSW,202,1.1,1.1,70,0.00,,---,0.00,VWS V14.01,2013-03-11 21:59:00,
2013-03-11 18:04:00,51.3,42.2,29.88,SSW,202,0.0,1.6,71,0.00,,---,0.00,VWS V14.01,2013-03-11 22:04:00,
2013-03-11 18:09:00,51.1,42.0,29.88,SSW,202,2.5,3.4,71,0.00,,---,0.00,VWS V14.01,2013-03-11 22:09:00,
2013-03-11 18:14:00,50.9,42.2,29.88,SSW,202,3.1,3.4,72,0.00,,---,0.00,VWS V14.01,2013-03-11 22:14:00,
2013-03-11 18:19:00,50.7,42.0,29.88,WSW,248,3.1,3.6,72,0.00,,---,0.00,VWS V14.01,2013-03-11 22:19:00,
2013-03-11 18:24:00,50.5,41.9,29.88,SSW,202,3.4,3.4,72,0.00,,---,0.00,VWS V14.01,2013-03-11 22:24:00,
2013-03-11 18:29:00,50.2,42.2,29.88,WSW,248,1.1,1.1,74,0.00,,---,0.00,VWS V14.01,2013-03-11 22:29:00,
2013-03-11 18:34:00,50.2,42.2,29.88,SSW,202,3.8,3.8,74,0.00,,---,0.00,VWS V14.01,2013-03-11 22:34:00,
2013-03-11 18:39:00,50.0,42.0,29.88,SSW,202,2.5,2.5,74,0.00,,---,0.00,VWS V14.01,2013-03-11 22:39:00,
2013-03-11 18:44:00,49.8,42.2,29.88,NW,315,1.1,1.1,75,0.00,,---,0.00,VWS V14.01,2013-03-11 22:44:00,
2013-03-11 18:49:00,49.6,42.0,29.88,SSW,202,2.0,2.7,75,0.00,,---,0.00,VWS V14.01,2013-03-11 22:49:00,
2013-03-11 18:54:00,49.6,42.4,29.88,SSW,202,4.0,4.0,76,0.00,,---,0.00,VWS V14.01,2013-03-11 22:54:00,
2013-03-11 18:59:00,49.5,42.2,29.88,SSW,202,3.1,3.1,76,0.00,,---,0.00,VWS V14.01,2013-03-11 22:59:00,
2013-03-11 19:04:00,49.5,42.2,29.88,SSW,202,2.9,2.9,76,0.00,,---,0.00,VWS V14.01,2013-03-11 23:04:00,
2013-03-11 19:09:00,49.3,42.0,29.88,SSW,202,2.7,2.7,76,0.00,,---,0.00,VWS V14.01,2013-03-11 23:09:00,
2013-03-11 19:14:00,49.3,42.4,29.88,SSW,202,3.6,3.6,77,0.00,,---,0.00,VWS V14.01,2013-03-11 23:14:00,
2013-03-11 19:19:00,49.3,42.4,29.88,SSW,202,3.4,3.4,77,0.00,,---,0.00,VWS V14.01,2013-03-11 23:19:00,
2013-03-11 19:24:00,49.3,42.7,29.88,SW,225,6.5,6.5,78,0.00,,---,0.00,VWS V14.01,2013-03-11 23:24:00,
2013-03-11 19:29:00,49.5,43.2,29.88,SW,225,1.1,1.1,79,0.00,,---,0.00,VWS V14.01,2013-03-11 23:29:00,
2013-03-11 19:34:00,49.6,43.4,29.88,SSE,158,3.8,3.8,79,0.00,,---,0.00,VWS V14.01,2013-03-11 23:34:00,
2013-03-11 19:39:00,49.6,43.4,29.88,SSW,202,2.5,2.5,79,0.00,,---,0.00,VWS V14.01,2013-03-11 23:39:00,
2013-03-11 19:44:00,49.6,43.4,29.88,SSW,202,3.4,3.4,79,0.00,,---,0.00,VWS V14.01,2013-03-11 23:44:00,
2013-03-11 19:49:00,49.6,43.7,29.88,SW,225,4.0,4.0,80,0.00,,---,0.00,VWS V14.01,2013-03-11 23:49:00,
2013-03-11 19:54:00,49.8,43.9,29.88,SSW,202,4.3,4.3,80,0.00,,---,0.00,VWS V14.01,2013-03-11 23:54:00,
2013-03-11 19:59:00,49.8,43.9,29.88,SW,225,2.5,2.7,80,0.00,,---,0.00,VWS V14.01,2013-03-11 23:59:00,
2013-03-11 20:04:00,49.8,44.2,29.88,WSW,248,4.3,4.3,81,0.00,,---,0.00,VWS V14.01,2013-03-12 00:04:00,
2013-03-11 20:09:00,50.0,44.4,29.88,SW,225,5.4,5.4,81,0.00,,---,0.00,VWS V14.01,2013-03-12 00:09:00,
2013-03-11 20:14:00,50.0,44.4,29.88,SSW,202,0.9,1.1,81,0.00,,---,0.00,VWS V14.01,2013-03-12 00:14:00,
2013-03-11 20:19:00,50.0,44.4,29.88,SSW,202,3.6,3.6,81,0.00,,---,0.00,VWS V14.01,2013-03-12 00:19:00,
2013-03-11 20:24:00,50.0,44.7,29.88,SSW,202,2.7,2.7,82,0.00,,---,0.00,VWS V14.01,2013-03-12 00:24:00,
2013-03-11 20:29:00,50.2,44.9,29.88,SW,225,1.6,2.9,82,0.00,,---,0.00,VWS V14.01,2013-03-12 00:29:00,
2013-03-11 20:34:00,50.2,44.9,29.88,South,180,3.6,3.6,82,0.00,,---,0.00,VWS V14.01,2013-03-12 00:34:00,
2013-03-11 20:39:00,50.4,45.1,29.88,SW,225,2.7,2.9,82,0.00,,---,0.00,VWS V14.01,2013-03-12 00:39:00,
2013-03-11 20:44:00,50.4,45.1,29.88,WSW,248,1.3,1.3,82,0.00,,---,0.00,VWS V14.01,2013-03-12 00:44:00,
2013-03-11 20:49:00,50.4,45.1,29.88,SW,225,3.1,3.1,82,0.00,,---,0.00,VWS V14.01,2013-03-12 00:49:00,
2013-03-11 20:54:00,50.4,45.1,29.88,SSW,202,1.6,2.9,82,0.00,,---,0.00,VWS V14.01,2013-03-12 00:54:00,
2013-03-11 20:59:00,50.4,45.4,29.88,South,180,3.4,3.4,83,0.00,,---,0.00,VWS V14.01,2013-03-12 00:59:00,
2013-03-11 21:04:00,50.4,45.4,29.88,WSW,248,3.1,3.1,83,0.00,,---,0.00,VWS V14.01,2013-03-12 01:04:00,
2013-03-11 21:09:00,50.4,45.4,29.88,South,180,4.7,4.7,83,0.00,,---,0.00,VWS V14.01,2013-03-12 01:09:00,
2013-03-11 21:14:00,50.5,45.6,29.88,SSW,202,2.5,3.8,83,0.00,,---,0.00,VWS V14.01,2013-03-12 01:14:00,
2013-03-11 21:19:00,50.4,45.4,29.88,SSW,202,3.4,3.4,83,0.00,,---,0.00,VWS V14.01,2013-03-12 01:19:00,
2013-03-11 21:24:00,50.2,45.2,29.88,SSW,202,2.9,3.1,83,0.00,,---,0.00,VWS V14.01,2013-03-12 01:24:00,
2013-03-11 21:29:00,50.2,45.2,29.88,SSW,202,2.9,2.9,83,0.00,,---,0.00,VWS V14.01,2013-03-12 01:29:00,
2013-03-11 21:34:00,50.2,45.2,29.85,SSW,202,2.5,2.5,83,0.00,,---,0.00,VWS V14.01,2013-03-12 01:34:00,
2013-03-11 21:39:00,50.2,45.5,29.85,SSE,158,1.6,2.9,84,0.00,,---,0.00,VWS V14.01,2013-03-12 01:39:00,
2013-03-11 21:44:00,50.2,45.5,29.85,SSW,202,1.3,1.3,84,0.00,,---,0.00,VWS V14.01,2013-03-12 01:44:00,
2013-03-11 21:49:00,50.2,45.8,29.88,SSW,202,2.5,2.9,85,0.00,,---,0.00,VWS V14.01,2013-03-12 01:49:00,
2013-03-11 21:54:00,50.2,45.8,29.88,SSW,202,2.0,2.5,85,0.00,,---,0.00,VWS V14.01,2013-03-12 01:54:00,
2013-03-11 21:59:00,50.0,45.7,29.88,SSW,202,4.0,4.0,85,0.00,,---,0.00,VWS V14.01,2013-03-12 01:59:00,
2013-03-11 22:04:00,50.0,45.7,29.88,SSW,202,6.3,6.3,85,0.00,,---,0.00,VWS V14.01,2013-03-12 02:04:00,
2013-03-11 22:09:00,50.0,45.7,29.88,SSW,202,2.7,3.1,85,0.00,,---,0.00,VWS V14.01,2013-03-12 02:09:00,
2013-03-11 22:14:00,50.0,45.7,29.88,SE,135,2.7,3.8,85,0.00,,---,0.00,VWS V14.01,2013-03-12 02:14:00,
2013-03-11 22:19:00,50.0,45.7,29.85,SSW,202,2.7,4.0,85,0.00,,---,0.00,VWS V14.01,2013-03-12 02:19:00,
2013-03-11 22:24:00,50.0,46.0,29.85,SSW,202,6.0,6.0,86,0.00,,---,0.00,VWS V14.01,2013-03-12 02:24:00,
2013-03-11 22:29:00,50.0,46.0,29.85,SSW,202,5.8,5.8,86,0.00,,---,0.00,VWS V14.01,2013-03-12 02:29:00,
2013-03-11 22:34:00,49.8,45.8,29.85,SSW,202,4.3,4.3,86,0.00,,---,0.00,VWS V14.01,2013-03-12 02:34:00,
2013-03-11 22:39:00,49.6,45.6,29.85,WSW,248,1.6,2.0,86,0.00,,---,0.00,VWS V14.01,2013-03-12 02:39:00,
2013-03-11 22:44:00,49.5,45.5,29.85,SSW,202,3.6,3.8,86,0.00,,---,0.00,VWS V14.01,2013-03-12 02:44:00,
2013-03-11 22:49:00,49.5,45.5,29.85,SSW,202,4.9,4.9,86,0.00,,---,0.00,VWS V14.01,2013-03-12 02:49:00,
2013-03-11 22:54:00,49.3,45.3,29.85,SSW,202,6.3,6.3,86,0.00,,---,0.00,VWS V14.01,2013-03-12 02:54:00,
2013-03-11 22:59:00,49.3,45.3,29.85,South,180,4.9,4.9,86,0.00,,---,0.00,VWS V14.01,2013-03-12 02:59:00,
2013-03-11 23:04:00,49.5,45.5,29.85,South,180,1.6,1.6,86,0.00,,---,0.00,VWS V14.01,2013-03-12 03:04:00,
2013-03-11 23:09:00,49.5,45.5,29.85,SSW,202,3.1,3.1,86,0.00,,---,0.00,VWS V14.01,2013-03-12 03:09:00,
2013-03-11 23:14:00,49.5,45.5,29.85,SSW,202,3.6,3.6,86,0.00,,---,0.00,VWS V14.01,2013-03-12 03:14:00,
2013-03-11 23:19:00,49.6,45.9,29.85,South,180,5.4,5.4,87,0.00,,---,0.00,VWS V14.01,2013-03-12 03:19:00,
2013-03-11 23:24:00,49.8,46.1,29.85,SSW,202,2.0,3.6,87,0.00,,---,0.00,VWS V14.01,2013-03-12 03:24:00,
2013-03-11 23:29:00,50.0,46.6,29.85,SSW,202,4.3,4.3,88,0.00,,---,0.00,VWS V14.01,2013-03-12 03:29:00,
2013-03-11 23:34:00,50.4,47.0,29.85,SW,225,1.1,1.1,88,0.00,,---,0.00,VWS V14.01,2013-03-12 03:34:00,
2013-03-11 23:39:00,50.7,47.3,29.85,SSW,202,7.6,7.6,88,0.00,,---,0.00,VWS V14.01,2013-03-12 03:39:00,
2013-03-11 23:44:00,50.9,47.2,29.85,West,270,4.3,4.3,87,0.00,,---,0.00,VWS V14.01,2013-03-12 03:44:00,
2013-03-11 23:49:00,50.9,47.2,29.85,WSW,248,3.1,3.1,87,0.00,,---,0.00,VWS V14.01,2013-03-12 03:49:00,
2013-03-11 23:54:00,51.1,47.3,29.85,SSW,202,2.0,2.0,87,0.00,,---,0.00,VWS V14.01,2013-03-12 03:54:00,
2013-03-11 23:59:00,51.3,47.5,29.85,WSW,248,0.9,0.9,87,0.00,,---,0.00,VWS V14.01,2013-03-12 03:59:00,